Location: Garzáin
(43.1301°N, 1.5373°W)
Time: 15:18:48
(UTC+00:00)

Cosmos 2173 Rocket - Pass Details

Date: 26 November 2025
Orbit: 943 x 1000 km, 83.0° (Epoch: 12 December)

Event Time Altitude Azimuth Distance (km) Brightness Sun altitude
Rises 17:17:06 0° 244° (WSW) 3,629 9.5 -7.9°
Reaches altitude 10° 17:21:17 10° 271° (W) 2,678 7.6 -8.6°
Maximum altitude 17:23:55 13° 297° (WNW) 2,468 6.8 -9.1°
Drops below altitude 10° 17:26:35 10° 323° (NW) 2,674 6.5 -9.5°
Sets 17:30:46 0° 351° (N) 3,620 6.9 -10.3°
